ROMMA est une association bénévole à but non lucratif. Votre soutien est indispensable : ADHERER à ROMMA ou FAIRE un DON

Crêts du Salève - (74, Haute-Savoie)

Salève (1270 m)   Longitude: 6° 10' 28'' E   Latitude: 46° 7' 42'' N Station romma n°73
 

Détail journalier du     <<     >>

Température Precipitation Humidité Vent Dir Rafale Dir. rafale Ensol.
Heure (°C) (mm) (%) (km/h) (km/h) (min)
01:00 18.807031S45S0
02:00 18.607128SSO45S0
03:00 18.307117SO35SO0
04:00 17.407517SSO31SSO0
05:00 17.707616SSO34SSO0
06:00 17.807722SSO37OSO0
07:00 17.507820SSO37SSO50
08:00 17.607520SSO32SSO60
09:00 16.808217SO34SO60
10:00 16.607327OSO40OSO60
11:00 16.407030OSO44OSO60
12:00 15.908129OSO47SO20
13:00 15.008629O48O0
14:00 16.70.26230SSO61SSO0
15:00 16.90.26843S68S0
16:00 17.406836S52S20
17:00 18.807322SSO45SSO60
18:00 19.806932SO53SO60
19:00 19.506828SO53OSO60
20:00 18.807036SO53SO30
21:00 18.707034SO56SO0
22:00 18.906641SO61OSO0
23:00 17.607831S50S0
minuit 17.607233SSO48SSO0

Graphique du 26-06-2020

 

Serveur OMMA